Weather Service Report


494 
ASUS46 KPQR 300010
RWROR 

OREGON REGIONAL WEATHER ROUNDUP
NATIONAL WEATHER SERVICE PORTLAND OR
500 PM PDT FRI APR 29 2016

NOTE: "FAIR" INDICATES FEW OR NO CLOUDS BELOW 12,000 FEET WITH
NO SIGNIFICANT WEATHER AND/OR OBSTRUCTIONS TO VISIBILITY.

ORZ001>013-300100-
NORTHWEST OREGON

  
CITY           SKY/WX    TMP DP  RH WIND       PRES   REMARKS
ASTORIA        CLOUDY    57  49  74 NW13      30.19R                  
6HR MIN TEMP:  53; 6HR MAX TEMP:  61; 6HR PCP:  0.01;                

NEWPORT        PTSUNNY   54  50  87 NW15G21   30.25R                  
PORTLAND       PTSUNNY   58  49  72 SW7       30.15S                  
6HR MIN TEMP:  50; 6HR MAX TEMP:  60; 6HR PCP:  0.05;                

VANCOUVER WA   MOSUNNY   57  48  72 SW3       30.14F                  
6HR MIN TEMP:  49; 6HR MAX TEMP:  58; 6HR PCP:  0.12;                

SCAPPOOSE      MOSUNNY   58  51  78 SE7       30.14S                  
6HR MIN TEMP:  51; 6HR MAX TEMP:  58; 6HR PCP:  0.12;                

HILLSBORO      PTSUNNY   62  45  53 W12       30.13S                  
6HR MIN TEMP:  50; 6HR MAX TEMP:  63; 6HR PCP:  0.02;                

AURORA         MOSUNNY   58  47  66 VRB3      30.16S                  
6HR MIN TEMP:  50; 6HR MAX TEMP:  59; 6HR PCP:  0.02;                

MCMINNVILLE    MOSUNNY   56  51  84 CALM      30.17R                  
6HR MIN TEMP:  52; 6HR MAX TEMP:  61; 6HR PCP:  0.20;                

SALEM          CLOUDY    58  48  69 NW8       30.15S                  
6HR MIN TEMP:  52; 6HR MAX TEMP:  59; 6HR PCP: TRACE;                

CORVALLIS        N/A     61  48  63 NW10      30.17F                  
EUGENE         PTSUNNY   57  46  66 E7        30.17S                  
6HR MIN TEMP:  53; 6HR MAX TEMP:  61; 6HR PCP:  0.05;                

$$

ORZ021-028-300100-
SOUTHWEST OREGON

  
CITY           SKY/WX    TMP DP  RH WIND       PRES   REMARKS
NORTH BEND     CLOUDY    57  52  82 N15       30.23S                  
6HR MIN TEMP:  55; 6HR MAX TEMP:  57;                                

BROOKINGS      SUNNY     57  49  74 NW15G24   30.15S                  
ROSEBURG       LGT RAIN  60  45  57 N9        30.15S                  
6HR MIN TEMP:  51; 6HR MAX TEMP:  63; 6HR PCP:  0.04;                

SEXTON SUMMIT  LGT RAIN  45  41  86 VRB5      30.12S                  
6HR MIN TEMP:  43; 6HR MAX TEMP:  49; 6HR PCP: TRACE;                

MEDFORD        PTSUNNY   63  39  41 NW15      30.11S                  
6HR MIN TEMP:  53; 6HR MAX TEMP:  64; 6HR PCP:  0.05;                

$$

ORZ014>016-041-300100-
COLUMBIA GORGE

  
CITY           SKY/WX    TMP DP  RH WIND       PRES   REMARKS
TROUTDALE      PTSUNNY   59  50  72 SW8       30.14S                  
6HR MIN TEMP:  50; 6HR MAX TEMP:  60; 6HR PCP:  0.03;                

THE DALLES     PTSUNNY   65  37  35 W17G28    30.03S                  
6HR MIN TEMP:  59; 6HR MAX TEMP:  67;                                

$$

ORZ029>031-041-044-049-050-061>064-502-503-505>511-300100-
EASTERN OREGON

  
CITY           SKY/WX    TMP DP  RH WIND       PRES   REMARKS
REDMOND        LGT RAIN  48  39  71 W10       30.06R                  
6HR MIN TEMP:  47; 6HR MAX TEMP:  54; 6HR PCP:  0.02;                

BEND           LGT RAIN  46  37  71 N9G18     30.06R                  
PRINEVILLE     CLOUDY    54  34  47 NW16G23   30.05S                  
KLAMATH FALLS  MOSUNNY   52  33  48 NW26G36   30.03R                  
6HR MIN TEMP:  48; 6HR MAX TEMP:  54; 6HR PCP: TRACE;                

LAKEVIEW       CLOUDY    41  34  75 NW17G24   30.02R                  
HERMISTON        N/A     62  43  49 W12       29.99R                  
6HR MIN TEMP:  57; 6HR MAX TEMP:  64; 6HR PCP: TRACE;                

PENDLETON      PTSUNNY   56  38  50 W13       29.99S                  
6HR MIN TEMP:  53; 6HR MAX TEMP:  57; 6HR PCP: TRACE;                

JOHN DAY       CLOUDY    47  38  73 W12       30.01R                  
MEACHAM        CLOUDY    43  39  87 CALM      30.00R                  
LA GRANDE      CLOUDY    50  34  53 NW14      29.99R                  
6HR MIN TEMP:  48; 6HR MAX TEMP:  54;                                

BAKER CITY     CLOUDY    51  36  56 NW21G31   29.96R                  
6HR MIN TEMP:  47; 6HR MAX TEMP:  53; 6HR PCP: TRACE;                

BURNS          CLOUDY    48  36  63 NW15      29.96S                  
6HR MIN TEMP:  45; 6HR MAX TEMP:  51; 6HR PCP: TRACE;                

ROME             N/A     47  41  80 S3        29.92F                  
6HR MIN TEMP:  45; 6HR MAX TEMP:  55; 6HR PCP:  0.14;                

ONTARIO        PTSUNNY   61  40  45 N14G25    29.91S                  
6HR MIN TEMP:  60; 6HR MAX TEMP:  64;                                

$$
  

Return to Home page


Western Regional Climate Center, wrcc@dri.edu